This is the latest recevied weather packets stored in our database for station/object K2NV. If no packets are shown the sender has not sent any weather packets the latest 1 day(s).
| Time | Temp. | Humidity | Pressure | Rain* | Wind** | Luminosity | Snow |
|---|---|---|---|---|---|---|---|
| 1778005756 | 18.33° C | 65% | 1003.8 hPa | 0 mm | 6.26 m/s, 261° | - | - |
| 1778005458 | 18.89° C | 65% | 1003.8 hPa | 0 mm | 7.6 m/s, 269° | - | - |
| 1778005158 | 18.89° C | 66% | 1003.8 hPa | 0 mm | 7.15 m/s, 281° | - | - |
| 1778004857 | 18.89° C | 65% | 1003.7 hPa | 0 mm | 7.6 m/s, 258° | - | - |
| 1778004557 | 18.89° C | 65% | 1003.7 hPa | 0 mm | 6.71 m/s, 257° | - | - |
| 1778004258 | 18.89° C | 64% | 1003.6 hPa | 0 mm | 8.94 m/s, 252° | - | - |
| 1778003957 | 18.89° C | 65% | 1003.6 hPa | 0 mm | 4.47 m/s, 251° | - | - |
| 1778003658 | 18.89° C | 64% | 1003.6 hPa | 0 mm | 7.15 m/s, 256° | - | - |
| 1778003360 | 18.89° C | 64% | 1003.5 hPa | 0 mm | 7.15 m/s, 271° | - | - |
| 1778003058 | 18.33° C | 63% | 1003.5 hPa | 0 mm | 7.6 m/s, 260° | - | - |
| 1778002758 | 18.33° C | 65% | 1003.4 hPa | 0 mm | 9.39 m/s, 256° | - | - |
| 1778002458 | 18.33° C | 65% | 1003.3 hPa | 0 mm | 8.05 m/s, 255° | - | - |
| 1778002157 | 18.33° C | 66% | 1003.2 hPa | 0 mm | 8.94 m/s, 256° | - | - |
| 1778001857 | 18.33° C | 67% | 1003.4 hPa | 0 mm | 8.94 m/s, 258° | - | - |
| 1778001558 | 18.33° C | 67% | 1003.4 hPa | 0 mm | 7.6 m/s, 257° | - | - |
| 1778001256 | 18.33° C | 68% | 1003.4 hPa | 0 mm | 7.15 m/s, 243° | - | - |
| 1778000957 | 18.33° C | 70% | 1003.5 hPa | 0 mm | 7.6 m/s, 267° | - | - |
| 1778000657 | 17.78° C | 70% | 1003.4 hPa | 0 mm | 5.81 m/s, 265° | - | - |
| 1778000358 | 18.33° C | 68% | 1003.5 hPa | 0 mm | 6.71 m/s, 264° | - | - |
| 1778000057 | 18.33° C | 68% | 1003.5 hPa | 0 mm | 8.05 m/s, 248° | - | - |
| 1777999758 | 18.33° C | 68% | 1003.5 hPa | 0 mm | 7.6 m/s, 262° | - | - |
| 1777999458 | 18.33° C | 67% | 1003.5 hPa | 0 mm | 9.39 m/s, 259° | - | - |
| 1777999157 | 18.33° C | 67% | 1003.2 hPa | 0 mm | 6.26 m/s, 243° | - | - |
| 1777998856 | 18.33° C | 67% | 1003.1 hPa | 0 mm | 8.05 m/s, 240° | - | - |
| 1777998557 | 18.33° C | 68% | 1003.1 hPa | 0 mm | 9.39 m/s, 262° | - | - |
* Rain latest hour (hover to see other rain measurements)
** Current wind speed in m/s (hover to see current wind gust speed)